Previsão horária em 3 internacional

Hoje, 30 Setembro, Quarta-feira

Tempo Temperatura Precipitação Vento Pressão Humidade
00:00 +10°C° 0 mm 5 m/s 758 mmHg 42%
01:00 +10°C° 0 mm 5 m/s 758 mmHg 43%
02:00 +10°C° 0 mm 6 m/s 758 mmHg 44%
03:00 +10°C° 0 mm 6 m/s 758 mmHg 45%
04:00 +10°C° 0 mm 6 m/s 758 mmHg 46%
05:00 +11°C° 0 mm 6 m/s 758 mmHg 44%
06:00 +11°C° 0 mm 7 m/s 758 mmHg 42%
07:00 +12°C° 0 mm 7 m/s 758 mmHg 41%
08:00 +13°C° 0 mm 8 m/s 758 mmHg 36%
09:00 +16°C° 0 mm 8 m/s 758 mmHg 30%
10:00 +18°C° 0 mm 9 m/s 758 mmHg 25%
11:00 +19°C° 0 mm 9 m/s 758 mmHg 24%
12:00 +21°C° 0 mm 9 m/s 757 mmHg 23%
13:00 +21°C° 0 mm 9 m/s 757 mmHg 22%
14:00 +21°C° 0 mm 9 m/s 757 mmHg 23%
15:00 +21°C° 0 mm 9 m/s 757 mmHg 24%
16:00 +20°C° 0 mm 8 m/s 757 mmHg 26%
17:00 +18°C° 0 mm 7 m/s 757 mmHg 29%
18:00 +16°C° 0 mm 5 m/s 757 mmHg 32%
19:00 +14°C° 0 mm 4 m/s 757 mmHg 35%
20:00 +14°C° 0 mm 4 m/s 757 mmHg 40%
21:00 +13°C° 0 mm 4 m/s 757 mmHg 44%
22:00 +12°C° 0 mm 4 m/s 757 mmHg 48%
23:00 +12°C° 0 mm 4 m/s 757 mmHg 49%

Amanhã, 1 Outubro, Quinta-feira

Tempo Temperatura Precipitação Vento Pressão Humidade
00:00 +12°C° 0 mm 5 m/s 757 mmHg 50%
01:00 +12°C° 0 mm 5 m/s 756 mmHg 50%
02:00 +10°C° 0 mm 5 m/s 757 mmHg 48%
03:00 +10°C° 0 mm 5 m/s 757 mmHg 45%
04:00 +9°C° 0 mm 5 m/s 757 mmHg 43%
05:00 +9°C° 0 mm 5 m/s 757 mmHg 38%
06:00 +9°C° 0 mm 6 m/s 757 mmHg 33%
07:00 +10°C° 0 mm 6 m/s 757 mmHg 27%
08:00 +13°C° 0 mm 6 m/s 757 mmHg 26%
09:00 +15°C° 0 mm 7 m/s 757 mmHg 24%
10:00 +17°C° 0 mm 7 m/s 757 mmHg 22%
11:00 +17°C° 0 mm 7 m/s 757 mmHg 21%
12:00 +18°C° 0 mm 7 m/s 757 mmHg 20%
13:00 +20°C° 0 mm 8 m/s 756 mmHg 19%
14:00 +20°C° 0 mm 7 m/s 756 mmHg 19%
15:00 +20°C° 0 mm 7 m/s 756 mmHg 18%
16:00 +20°C° 0 mm 7 m/s 756 mmHg 18%
17:00 +17°C° 0 mm 7 m/s 756 mmHg 18%
18:00 +15°C° 0 mm 6 m/s 756 mmHg 18%
19:00 +13°C° 0 mm 6 m/s 756 mmHg 18%
20:00 +13°C° 0 mm 6 m/s 756 mmHg 18%
21:00 +11°C° 0 mm 6 m/s 756 mmHg 18%
22:00 +11°C° 0 mm 6 m/s 756 mmHg 18%
23:00 +10°C° 0 mm 5 m/s 756 mmHg 19%

Depois de amanhã, 2 Outubro, Sexta-feira

Tempo Temperatura Precipitação Vento Pressão Humidade
00:00 +9°C° 0 mm 5 m/s 756 mmHg 21%
01:00 +9°C° 0 mm 5 m/s 756 mmHg 22%
02:00 +8°C° 0 mm 5 m/s 756 mmHg 25%
03:00 +8°C° 0 mm 5 m/s 756 mmHg 28%
04:00 +7°C° 0 mm 5 m/s 756 mmHg 31%
05:00 +7°C° 0 mm 5 m/s 756 mmHg 31%
06:00 +8°C° 0 mm 6 m/s 756 mmHg 32%
07:00 +8°C° 0 mm 6 m/s 757 mmHg 32%
08:00 +10°C° 0 mm 6 m/s 757 mmHg 28%
09:00 +14°C° 0 mm 6 m/s 757 mmHg 24%
10:00 +17°C° 0 mm 6 m/s 757 mmHg 20%
11:00 +19°C° 0 mm 6 m/s 757 mmHg 19%
12:00 +20°C° 0 mm 6 m/s 756 mmHg 17%
13:00 +22°C° 0 mm 6 m/s 756 mmHg 15%
14:00 +21°C° 0 mm 6 m/s 756 mmHg 15%
15:00 +21°C° 0 mm 6 m/s 756 mmHg 14%
16:00 +21°C° 0 mm 6 m/s 756 mmHg 14%
17:00 +17°C° 0 mm 5 m/s 756 mmHg 15%
18:00 +15°C° 0 mm 5 m/s 756 mmHg 16%
19:00 +13°C° 0 mm 4 m/s 756 mmHg 17%
20:00 +12°C° 0 mm 4 m/s 756 mmHg 18%
21:00 +11°C° 0 mm 4 m/s 756 mmHg 20%
22:00 +11°C° 0 mm 4 m/s 756 mmHg 22%
23:00 +10°C° 0 mm 4 m/s 756 mmHg 24%

3 Outubro, Sábado

Tempo Temperatura Precipitação Vento Pressão Humidade
00:00 +10°C° 0 mm 4 m/s 756 mmHg 27%
01:00 +8°C° 0 mm 4 m/s 756 mmHg 30%
02:00 +8°C° 0 mm 4 m/s 756 mmHg 33%
03:00 +7°C° 0 mm 4 m/s 756 mmHg 36%
04:00 +8°C° 0 mm 3 m/s 757 mmHg 40%
05:00 +8°C° 0 mm 3 m/s 757 mmHg 39%
06:00 +9°C° 0 mm 3 m/s 757 mmHg 39%
07:00 +10°C° 0 mm 3 m/s 757 mmHg 38%
08:00 +12°C° 0 mm 3 m/s 757 mmHg 34%
09:00 +15°C° 0 mm 4 m/s 757 mmHg 29%
10:00 +19°C° 0 mm 4 m/s 757 mmHg 25%
11:00 +20°C° 0 mm 4 m/s 757 mmHg 22%
12:00 +21°C° 0 mm 4 m/s 757 mmHg 20%
13:00 +22°C° 0 mm 4 m/s 756 mmHg 17%
14:00 +21°C° 0 mm 4 m/s 756 mmHg 18%
15:00 +21°C° 0 mm 4 m/s 756 mmHg 18%
16:00 +21°C° 0 mm 4 m/s 756 mmHg 19%
17:00 +19°C° 0 mm 4 m/s 756 mmHg 24%
18:00 +15°C° 0 mm 4 m/s 757 mmHg 29%
19:00 +13°C° 0 mm 3 m/s 757 mmHg 34%
20:00 +13°C° 0 mm 3 m/s 757 mmHg 37%
21:00 +12°C° 0 mm 3 m/s 757 mmHg 40%
22:00 +11°C° 0 mm 3 m/s 757 mmHg 44%
23:00 +11°C° 0 mm 3 m/s 757 mmHg 46%

4 Outubro, Domingo

Tempo Temperatura Precipitação Vento Pressão Humidade
00:00 +10°C° 0 mm 3 m/s 757 mmHg 48%
01:00 +10°C° 0 mm 3 m/s 757 mmHg 51%
02:00 +10°C° 0 mm 3 m/s 757 mmHg 52%
03:00 +9°C° 0 mm 3 m/s 757 mmHg 54%
04:00 +9°C° 0 mm 3 m/s 757 mmHg 56%
05:00 +10°C° 0 mm 3 m/s 758 mmHg 53%
06:00 +10°C° 0 mm 3 m/s 758 mmHg 51%
07:00 +11°C° 0 mm 3 m/s 758 mmHg 49%
08:00 +13°C° 0 mm 3 m/s 759 mmHg 43%
09:00 +15°C° 0 mm 4 m/s 759 mmHg 38%
10:00 +18°C° 0 mm 4 m/s 759 mmHg 32%
11:00 +19°C° 0 mm 4 m/s 759 mmHg 30%
12:00 +20°C° 0 mm 4 m/s 758 mmHg 28%
13:00 +21°C° 0 mm 4 m/s 758 mmHg 26%
14:00 +20°C° 0 mm 4 m/s 758 mmHg 26%
15:00 +20°C° 0 mm 4 m/s 758 mmHg 26%
16:00 +20°C° 0 mm 4 m/s 758 mmHg 26%
17:00 +18°C° 0 mm 4 m/s 758 mmHg 30%
18:00 +16°C° 0 mm 3 m/s 758 mmHg 35%
19:00 +13°C° 0 mm 3 m/s 758 mmHg 39%
20:00 +12°C° 0 mm 3 m/s 758 mmHg 41%
21:00 +12°C° 0 mm 3 m/s 758 mmHg 42%
22:00 +12°C° 0 mm 3 m/s 758 mmHg 43%
23:00 +12°C° 0 mm 2 m/s 758 mmHg 45%

5 Outubro, Segunda-feira

Tempo Temperatura Precipitação Vento Pressão Humidade
00:00 +12°C° 0 mm 2 m/s 758 mmHg 46%
01:00 +12°C° 0 mm 2 m/s 758 mmHg 48%
02:00 +12°C° 0 mm 2 m/s 758 mmHg 49%
03:00 +11°C° 0 mm 3 m/s 758 mmHg 51%
04:00 +10°C° 0 mm 3 m/s 758 mmHg 52%
05:00 +11°C° 0 mm 4 m/s 758 mmHg 57%
06:00 +10°C° 0 mm 5 m/s 759 mmHg 61%
07:00 +10°C° 0 mm 6 m/s 759 mmHg 65%
08:00 +11°C° 0 mm 6 m/s 759 mmHg 58%
09:00 +13°C° 0 mm 6 m/s 759 mmHg 51%
10:00 +14°C° 0 mm 6 m/s 759 mmHg 43%
11:00 +15°C° 0 mm 6 m/s 759 mmHg 37%
12:00 +17°C° 0 mm 6 m/s 759 mmHg 32%
13:00 +19°C° 0 mm 6 m/s 759 mmHg 26%
14:00 +17°C° 0 mm 6 m/s 759 mmHg 24%
15:00 +17°C° 0 mm 6 m/s 759 mmHg 22%
16:00 +16°C° 0 mm 6 m/s 759 mmHg 21%
17:00 +14°C° 0 mm 6 m/s 759 mmHg 24%
18:00 +11°C° 0 mm 6 m/s 760 mmHg 28%
19:00 +9°C° 0 mm 5 m/s 760 mmHg 32%
20:00 +8°C° 0 mm 5 m/s 760 mmHg 33%
21:00 +7°C° 0 mm 5 m/s 761 mmHg 34%
22:00 +6°C° 0 mm 5 m/s 761 mmHg 35%
23:00 +5°C° 0 mm 5 m/s 761 mmHg 36%
Mostrar mais